Regional Weather Roundup
Issued by NWS

Home | Current Version | Previous Version | Text Only | Print | Product List | Glossary Off
Versions: 1 2 3 4 5 6 7 8 9 10 11 12 13 14 15 16 17 18 19 20 21 22 23 24 25 26 27 28 29 30 31 32 33 34 35 36 37 38 39 40 41 42 43 44 45 46 47 48 49 50

000
ASUS45 KBOI 270210
RWRID
WEATHER ROUNDUP FOR IDAHO
NATIONAL WEATHER SERVICE BOISE ID
700 PM MST THU FEB 26 2015

NOTE: "FAIR" INDICATES FEW OR NO CLOUDS BELOW 12000 FEET
WITH NO SIGNIFICANT WEATHER AND/OR OBSTRUCTIONS TO VISIBILITY

IDZ012-014-270300-
SOUTHWEST IDAHO


CITY           SKY/WX    TMP DP  RH WIND       PRES   REMARKS
BOISE          LGT RAIN  44  35  70 N10G17    29.94S
CALDWELL       CLOUDY    46  28  49 W7        29.96S
$$

IDZ016-017-270300-
SOUTHCENTRAL IDAHO


CITY           SKY/WX    TMP DP  RH WIND       PRES   REMARKS
BURLEY         CLOUDY    37  28  70 W13       29.91S WCI  29
JEROME         PTCLDY    33  31  92 SE7       29.92F WCI  27
TWIN FALLS     CLOUDY    35  31  85 S8        29.92F WCI  29
$$

IDZ019>023-270300-
SOUTHEAST IDAHO


CITY           SKY/WX    TMP DP  RH WIND       PRES   REMARKS
IDAHO FALLS    CLEAR     30   7  37 NE7       29.92S WCI  23
POCATELLO      MOCLDY    34  17  50 NW6       29.93R WCI  29
REXBURG        CLEAR     30   7  37 N5        29.92S WCI  25
$$

IDZ006-010-011-018-031-032-270300-
CENTRAL IDAHO MOUNTAINS


CITY           SKY/WX    TMP DP  RH WIND       PRES   REMARKS
MCCALL         MOCLDY    32  26  78 CALM      29.89F
STANLEY          N/A     29  19  66 CALM      29.87S
SALMON         CLOUDY    36  18  48 E3        29.92S
CHALLIS        PTCLDY    32  19  58 NW5       29.88S WCI  27
$$

IDZ002-004-006-007-026-270300-
NORTHERN IDAHO


CITY           SKY/WX    TMP DP  RH WIND       PRES   REMARKS
LEWISTON       CLOUDY    43  39  86 SE3       29.99F
LOWELL           N/A     42  34  73 CALM      30.00S
COEUR D`ALENE  CLOUDY    37  27  65 N7        29.97S WCI  32
MULLAN PASS    CLOUDY    25  17  72 CALM      29.89F
$$


USA.gov is the U.S. government's official web portal to all federal, state and local government web resources and services.